Location: Castillon
(43.1358°N, 0.8654°E)
Time: 18:34:51
(UTC+00:00)

Cosmos 1680 Rocket - Pass Details

Date: 24 January 2021
Orbit: 760 x 780 km, 74.1° (Epoch: 27 February)

Event Time Altitude Azimuth Distance (km) Brightness Sun altitude
Rises 17:34:10 0° 347° (NNW) 3,246 6.7 -6.8°
Reaches altitude 10° 17:36:46 10° 356° (N) 2,312 5.8 -7.3°
Maximum altitude 17:41:33 35° 61° (ENE) 1,231 4.1 -8.1°
Drops below altitude 10° 17:46:16 10° 127° (SE) 2,290 5.6 -8.9°
Sets 17:48:49 0° 136° (SE) 3,211 6.5 -9.4°
